SCP
0 0 0 0 0 0 0 0 0 0 0 0 0 0 0 -0 -0 -0 -0 -0 -0 -0 -0 0 0 0 0 0 0 0 0 0 0 0 0 0 0 0 0 0 -0 0 0 0 -0 -0 -0
0 0 0 0 0 0 0 0 0 0 0 0 0 0 0 0 -0 -0 -0 -0 -0 -0 0 0 0 0 0 0 0 0 0 0 0 0 0 0 0 0 0 0 0 -0 -0 0 -0 0 0
0 0 0 0 0 0 0 0 0 0 0 0 0 0 0 0 0 0 -0 -0 -0 -0 0 0 0 -0 0 0 0 0 0 0 0 0 0 0 0 0 0 -0 0 0 -0 -0 0 0 -0
0 0 0 0 0 0 0 0 0 0 0 0 0 0 0 0 0 0 -0 -0 -0 -0 0 -0 -0 -0 0 0 0 0 0 0 0 0 0 0 0 0 0 0 -0 -0 0 -0 0 0 0
0 0 0 0 0 0 0 0 0 0 0 0 0 0 0 0 0 0 -0 -0 -0 0 0 0 0 0 0 0 0 0 0 0 0 0 0 0 0 0 0 0 0 0 -0 0 -0 0 -0
0 0 0 0 0 0 0 0 0 0 0 0 0 0 0 0 0 0 -0 -0 0 0 0 0 0 0 0 0 0 0 0 0 0 0 0 0 0 0 0 0 -0 -0 0 0 0 0 -0
0 0 0 0 0 0 0 0 0 0 0 0 0 0 0 0 0 0 0 0 0 0 0 0 0 0 0 0 0 0 0 0 0 0 0 0 0 0 0 0 0 0 0 0 -0 0 -0
0 0 0 0 0 0 0 0 0 0 0 0 0 0 0 0 0 0 0 0 0 0 0 0 0 0 -0 0 0 0 0 0 0 0 0 0 0 0 0 0 0 0 0 0 0 0 0
0 0 0 0 0 0 0 0 0 0 0 0 0 0 0 0 0 0 0 0 0 0 0 0 0 0 0 0 0 -0 0 0 0 0 0 0 0 0 0 0 0 0 0 0 -0 0 0
0 0 0 0 0 0 0 0 0 0 0 0 0 0 0 0 0 0 0 0 0 0 0 0 0 0 0 0 0 0 0 0 0 0 0 0 0 0 0 0 0 0 0 0 0 0 0
0 0 0 0 0 0 0 0 0 0 0 0 0 0 0 0 0 0 0 0 0 0 0 0 0 0 0 0 0 0 0 0 0 0 0 0 0 0 0 0 0 0 0 0 0 0 0
0 0 0 0 0 0 0 0 0 0 0 0 0 0 0 0 0 0 0 0 0 0 0 0 0 0 0 0 0 0 0 0 0 0 0 0 0 0 0 0 0 0 0 0 0 0 0
-0 0 0 0 0 0 0 0 0 0 0 0 0 0 0 0 0 0 0 0 0 0 0 0 0 0 0 0 0 0 0 0 0 0 0 0 0 0 0 0 0 0 0 0 0 0 0
0 -0 0 0 0 0 0 0 0 0 0 0 0 0 0 0 0 0 0 0 0 0 0 0 0 0 0 0 0 0 0 0 0 0 0 0 0 0 0 0 0 0 0 0 0 0 0
0 0 0 0 0 0 0 0 0 0 0 0 0 0 0 0 0 0 0 0 0 0 0 0 0 0 0 0 0 0 0 0 0 0 0 0 0 0 0 0 0 0 0 0 0 0 0
0 0 0 0 0 0 0 0 0 0 0 0 0 0 0 0 0 0 0 0 0 0 0 0 0 0 0 0 0 0 0 0 0 0 0 0 0 0 0 0 0 0 0 0 0 0 0
0 0 0 0 0 0 0 0 0 0 0 0 0 0 0 0 0 0 0 0 0 0 0 0 0 0 0 0 0 0 0 0 0 0 0 0 0 0 0 0 0 0 0 0 0 0 0
0 0 0 0 0 0 0 0 0 0 0 0 0 0 0 0 0 0 0 0 0 0 0 0 0 0 0 0 0 0 0 0 0 0 0 0 0 0 0 0 0 0 0 0 0 0 0
0 0 0 0 0 0 0 0 0 0 0 0 0 0 0 0 0 0 0 0 0 0 0 0 0 0 0 0 0 0 0 0 0 0 0 0 0 0 0 0 0 0 0 0 0 0 0
0 0 0 0 0 0 0 0 0 0 0 0 0 0 0 0 0 0 0 0 0 0 0 0 0 0 0 0 0 0 0 0 0 0 0 0 0 0 0 0 0 0 0 0 0 0 0
0 0 0 0 0 0 0 0 0 0 0 0 0 0 0 0 0 0 0 0 0 0 0 0 0 0 0 0 0 0 0 0 0 0 0 0 0 0 0 0 0 0 0 0 0 0 0
0 0 0 0 0 0 0 0 0 -0 0 0 0 0 0 0 0 0 0 0 0 0 0 0 0 0 0 0 0 0 0 0 0 0 0 0 0 0 0 0 0 0 0 0 0 0 0
0 0 0 0 0 -0 -0 0 0 0 0 0 0 0 0 0 0 0 0 0 0 0 0 0 0 0 0 0 0 0 0 0 0 0 0 0 0 0 0 0 0 0 0 0 0 0 0
0 0 0 0 -0 -0 -0 -0 0 0 0 0 0 0 0 0 0 0 0 0 0 0 0 0 0 0 0 0 0 0 0 0 0 0 0 0 0 0 0 0 0 0 0 0 0 0 0
0 0 0 0 0 -0 -0 -0 -0 0 0 0 0 0 0 0 0 0 0 0 0 0 0 0 0 0 0 0 0 0 0 0 0 0 0 0 0 0 0 0 0 0 0 0 0 0 0
0 0 0 0 0 0 -0 -0 -0 0 0 0 0 0 0 0 0 0 0 0 0 0 0 0 0 0 0 0 0 0 0 0 0 0 0 0 0 0 0 0 0 0 0 0 0 0 0
0 0 0 0 0 0 0 -0 -0 -0 0 0 0 0 0 0 0 0 0 0 0 0 0 0 0 0 0 0 0 0 0 0 0 0 0 0 0 0 0 0 0 0 0 0 0 0 0
0 0 0 0 0 0 0 0 -0 -0 -0 0 0 0 0 0 0 0 0 0 0 0 0 0 0 0 0 0 0 0 0 0 0 0 0 0 0 0 0 0 0 1 1 0 0 0 0
0 0 0 0 0 0 0 0 0 -0 -0 0 0 0 0 0 0 0 0 0 0 0 0 0 0 0 0 0 0 0 0 0 0 0 0 0 0 0 0 0 0 0 1 1 0 0 0
Wind_Speed_500mb
2 3 5 7 9 12 13 14 15 17 19 20 21 21 21 22 21 22 21 20 20 21 21 21 20 20 13 6 3 6 9 8 14 12 12 19 13 8 5 7 12 11 12 28 53 18 18
2 5 8 10 12 14 15 17 17 19 21 21 22 23 24 24 24 23 23 22 22 21 23 20 19 17 11 6 3 7 2 7 6 6 11 19 11 14 4 10 3 18 31 27 11 8 5
5 5 7 10 12 15 16 18 19 20 21 24 24 24 26 26 27 25 25 25 24 22 23 20 19 17 14 11 8 5 3 7 3 5 7 14 16 15 12 11 17 13 7 12 9 1 2
6 9 9 11 12 14 17 19 21 22 22 24 26 26 26 27 28 28 26 27 25 24 24 21 19 17 11 8 16 10 4 9 4 5 8 12 17 18 5 15 15 8 10 9 15 6 14
11 12 12 13 14 15 16 19 21 22 24 24 26 27 28 28 27 28 26 27 26 24 23 20 18 12 11 13 19 10 11 8 4 4 5 9 16 7 6 7 11 14 4 9 18 8 8
13 14 14 15 17 18 19 20 22 22 24 25 25 28 28 28 27 26 24 24 18 15 11 16 20 11 13 1 9 12 20 11 10 16 7 3 3 6 8 11 5 7 7 9 12 10 3
16 17 17 18 18 19 21 21 23 24 25 26 26 27 25 26 25 22 16 7 7 6 18 15 11 12 22 9 4 9 17 16 12 4 3 9 10 7 10 10 7 7 7 12 11 9 10
19 19 20 21 20 21 22 23 24 25 26 27 28 27 25 22 20 12 11 11 15 14 22 21 33 41 40 36 10 15 23 11 5 4 3 11 7 17 8 10 12 11 10 12 10 6 1
21 22 22 22 22 22 23 24 24 25 26 27 27 27 25 18 15 7 7 10 14 8 8 24 27 34 37 20 17 25 28 23 6 5 6 9 12 6 7 8 9 7 6 6 9 12 12
23 23 23 23 24 25 25 25 26 26 27 27 27 26 25 13 7 10 11 4 4 7 9 15 11 21 32 29 11 35 32 20 5 12 12 10 12 9 9 11 13 6 9 4 3 7 3
26 26 26 25 25 25 27 27 27 27 27 28 28 26 21 12 9 9 9 5 4 2 5 6 8 5 26 31 5 9 43 29 14 8 10 13 4 13 8 13 10 15 5 5 5 8 4
22 24 27 28 28 28 27 28 29 29 29 28 27 29 21 18 16 13 3 10 4 10 11 12 10 9 11 11 4 7 26 24 9 6 6 14 12 9 12 8 8 7 8 13 9 7 7
22 22 24 27 29 29 31 30 30 31 31 29 27 30 25 18 8 10 12 11 9 7 9 10 3 3 6 12 8 6 9 9 11 7 4 11 7 9 9 2 6 13 14 8 9 10 10
22 24 25 27 30 31 32 33 34 33 34 31 27 28 27 18 19 15 14 8 6 10 12 11 8 1 13 7 6 10 10 8 5 8 6 5 13 4 2 9 11 5 14 11 7 4 10
22 25 27 27 29 31 33 35 36 35 35 33 26 23 21 13 26 23 13 5 15 11 7 13 16 1 6 8 4 8 14 14 17 15 14 9 11 6 6 9 14 7 4 8 13 5 5
21 24 26 29 31 31 33 36 37 36 35 33 24 12 5 13 32 28 8 12 9 9 10 8 5 3 2 9 14 14 15 11 11 20 15 11 3 6 11 8 9 14 14 5 7 4 4
22 24 27 28 31 33 34 37 37 35 34 27 12 2 12 18 36 17 7 13 8 15 15 3 4 7 8 4 13 13 14 9 18 13 16 10 7 12 7 2 14 4 4 14 10 9 10
21 24 27 29 31 33 35 36 39 36 35 24 4 5 20 29 6 4 4 9 8 8 7 8 4 10 8 5 4 3 13 18 28 26 21 15 10 8 18 3 7 6 8 10 10 7 4
20 23 27 30 32 33 34 35 37 37 38 35 12 6 24 29 3 4 10 9 8 6 10 6 6 5 7 6 2 6 4 6 9 19 21 16 3 3 17 13 8 14 5 11 9 6 6
18 21 24 27 30 31 32 33 34 32 29 23 5 4 6 22 6 9 3 10 7 14 15 15 11 10 8 5 9 4 11 7 15 10 17 25 8 14 15 13 7 9 8 8 10 7 7
19 21 24 28 30 31 31 33 32 27 20 14 10 3 5 5 5 5 7 6 7 8 8 14 4 8 8 3 6 9 9 13 11 20 8 10 9 7 5 10 9 6 5 9 7 9 8
20 21 24 27 29 30 30 30 30 25 9 13 7 9 9 8 18 10 9 7 13 13 9 8 6 6 9 10 9 3 3 10 3 12 8 6 4 6 5 6 9 6 8 8 8 3 3
21 22 23 25 26 28 28 29 29 26 14 7 9 7 4 7 11 5 2 8 12 10 8 4 7 9 10 11 12 8 3 6 4 2 5 6 10 6 7 4 7 9 5 5 10 8 4
25 23 23 24 24 25 27 26 26 25 21 17 18 7 5 5 5 5 9 18 13 11 6 8 19 7 3 6 0 3 3 7 17 15 3 6 7 5 5 6 5 9 9 15 21 5 5
24 23 22 24 23 21 23 23 21 19 14 9 18 9 6 3 8 11 26 22 18 14 8 9 19 11 3 5 8 10 11 11 8 9 10 9 8 8 8 5 6 6 7 6 7 5 9
20 24 22 24 23 19 20 20 19 17 14 4 10 11 2 1 5 12 9 17 7 9 14 10 13 22 6 8 7 6 7 7 5 6 8 12 13 9 5 9 10 11 2 2 10 8 29
19 22 24 21 22 19 18 18 17 16 11 5 7 11 6 8 5 11 7 6 12 8 5 10 21 17 15 6 6 4 4 4 3 5 5 6 7 9 5 5 12 10 11 11 6 14 28
19 20 24 20 20 19 17 16 16 15 9 4 2 9 13 10 19 13 6 10 15 11 4 16 5 13 10 8 5 2 3 4 1 4 2 5 8 5 7 7 10 7 9 6 8 6 28
19 20 23 22 17 18 18 17 15 15 13 6 7 15 22 17 14 20 23 20 16 8 11 16 4 2 6 6 3 3 4 5 2 3 7 2 7 6 9 9 8 15 4 9 14 10 15
Wind_Direction_500mb
16 316 306 314 315 316 322 321 318 317 319 321 321 321 320 319 319 317 318 321 322 323 323 329 336 335 346 305 262 355 3 92 124 92 53 26 56 32 9 291 314 202 259 284 244 267 256
332 308 310 315 317 317 316 317 316 314 313 314 316 317 315 314 313 311 311 313 311 314 313 320 325 328 329 292 215 3 357 111 135 54 42 41 25 347 291 284 324 309 285 282 280 279 192
338 316 318 316 316 314 313 312 311 310 311 312 313 312 311 311 309 307 306 306 304 308 304 308 314 315 287 255 223 278 296 203 226 339 36 34 25 356 318 316 325 291 289 333 297 354 70
336 336 331 325 322 315 312 312 311 310 310 309 308 308 309 309 307 305 304 303 300 298 295 298 303 306 261 211 217 245 284 200 139 28 348 18 349 327 230 305 342 25 42 4 288 11 295
354 344 341 332 326 318 313 311 313 312 311 308 307 307 308 309 307 305 306 298 298 293 289 291 291 288 266 226 237 235 244 212 281 331 358 320 330 353 14 57 8 8 323 310 309 244 176
359 350 344 336 330 325 318 312 313 312 309 307 306 304 308 309 309 307 310 301 302 300 300 282 265 286 237 158 280 246 242 232 284 334 329 331 50 51 40 64 212 278 328 287 264 304 52
3 356 349 345 336 329 324 320 315 314 312 310 306 302 303 304 306 318 330 314 335 272 306 255 272 268 265 321 241 212 198 211 255 279 63 14 50 235 226 209 215 265 231 243 260 292 205
7 2 356 349 341 335 328 323 320 317 315 312 308 304 301 297 299 318 52 78 30 301 302 270 259 256 259 278 298 197 171 193 176 202 76 15 251 242 228 223 240 240 254 298 291 334 288
5 1 358 352 345 339 334 328 324 320 316 311 308 305 300 294 285 243 132 56 38 3 258 287 249 244 242 246 225 229 194 199 154 165 172 167 240 350 200 284 293 234 222 275 229 345 13
3 2 358 352 347 344 339 335 329 323 318 313 309 306 302 295 253 208 180 82 25 323 39 274 233 240 215 215 263 223 201 183 196 210 184 224 273 265 242 247 162 275 191 228 56 71 262
2 1 358 354 349 345 342 340 333 327 320 315 310 304 302 279 250 208 228 150 251 303 339 249 214 198 187 172 159 205 211 199 188 199 90 252 311 358 315 222 149 225 134 31 99 97 52
3 0 356 355 351 347 344 340 336 330 322 316 311 300 294 281 249 211 213 176 146 48 251 319 186 166 117 189 232 67 174 200 221 174 229 239 272 233 220 254 172 96 79 45 55 62 31
1 358 356 354 352 347 343 340 337 332 323 318 311 297 289 265 234 191 183 168 54 151 332 300 333 33 202 175 211 150 140 163 170 135 305 329 264 270 225 322 33 75 54 1 360 8 216
360 357 357 356 351 348 345 342 338 334 326 323 312 296 280 248 221 169 170 59 158 231 255 298 316 346 178 148 242 158 141 203 266 98 91 119 322 197 23 168 185 86 137 148 192 220 266
359 357 355 356 353 349 345 343 340 339 330 327 317 298 279 233 196 177 175 95 206 212 297 348 328 0 240 229 160 145 187 200 204 163 168 161 267 315 262 194 137 185 107 177 102 23 45
356 354 351 353 352 351 348 346 342 345 336 332 325 312 246 185 175 176 93 223 230 231 328 20 18 343 320 270 160 156 181 210 213 185 167 201 290 254 295 90 61 153 156 74 23 165 264
354 352 350 350 350 351 352 350 346 348 344 335 334 41 152 145 161 172 168 230 279 276 343 359 275 289 270 276 189 181 199 272 203 180 136 135 108 282 15 310 167 67 73 49 113 123 159
355 350 348 348 348 351 353 355 350 352 354 349 12 58 149 153 97 36 178 212 321 309 329 308 253 239 257 294 315 166 212 221 210 156 161 198 154 227 236 284 292 127 139 127 120 234 101
357 353 350 348 346 348 355 358 354 357 358 358 358 51 172 178 127 293 292 287 270 271 243 259 285 273 291 278 250 233 234 262 5 164 167 174 235 311 340 354 6 83 75 109 118 85 177
355 356 352 349 348 347 352 1 359 360 4 355 4 58 153 219 237 148 357 274 251 255 244 219 240 279 273 350 30 306 335 351 2 67 118 141 117 164 202 202 182 126 90 72 108 98 180
354 360 358 354 351 350 353 3 5 8 28 18 11 44 39 305 299 283 188 270 304 312 268 222 244 228 221 34 15 359 321 346 353 20 72 107 124 150 147 163 144 117 97 154 157 170 142
351 357 1 360 355 353 355 5 13 12 32 43 28 10 3 298 309 308 171 265 226 260 229 294 204 161 134 145 195 164 294 20 347 334 46 351 137 113 45 78 115 123 34 88 90 110 173
352 354 359 2 358 354 355 7 16 24 37 40 23 343 319 331 345 30 256 286 274 320 227 264 229 116 116 188 190 263 243 96 45 340 26 43 119 95 174 315 114 25 13 103 94 51 135
357 350 355 359 360 358 355 6 15 24 34 40 19 18 7 290 12 298 305 336 290 273 257 16 106 99 286 280 261 107 34 34 60 33 81 115 83 78 135 42 62 257 2 113 111 88 71
352 350 350 355 356 358 357 1 11 17 26 41 25 21 3 304 297 322 332 345 355 4 21 41 38 6 79 84 52 39 348 9 337 30 25 72 109 67 111 108 259 117 223 165 138 219 195
336 347 344 349 351 351 355 355 0 6 23 79 24 2 337 278 250 328 323 359 355 334 342 343 27 38 56 75 75 123 180 230 301 347 65 46 70 102 97 114 180 237 310 137 108 311 187
319 332 341 338 343 347 348 350 350 359 24 104 24 3 317 287 267 359 16 331 346 343 273 325 337 5 26 52 72 124 220 241 214 185 210 20 19 135 130 144 285 255 297 175 103 238 183
303 316 332 331 335 341 339 341 340 344 352 224 353 345 349 300 292 257 280 340 350 11 33 325 351 358 30 64 108 200 141 266 346 260 6 151 133 190 95 101 267 11 285 165 200 1 191
292 300 317 324 323 332 335 333 334 335 339 338 246 307 306 282 276 293 271 279 273 286 321 5 73 158 54 86 58 105 27 20 80 276 334 76 159 195 167 212 304 344 350 130 143 120 178
Wind_Speed_850mb
2 3 5 7 9 12 13 14 15 17 19 20 21 21 21 22 21 22 21 20 20 21 21 21 20 20 13 6 3 6 9 8 14 12 12 19 13 8 5 7 12 11 12 28 53 18 18
2 5 8 10 12 14 15 17 17 19 21 21 22 23 24 24 24 23 23 22 22 21 23 20 19 17 11 6 3 7 2 7 6 6 11 19 11 14 4 10 3 18 31 27 11 8 5
5 5 7 10 12 15 16 18 19 20 21 24 24 24 26 26 27 25 25 25 24 22 23 20 19 17 14 11 8 5 3 7 3 5 7 14 16 15 12 11 17 13 7 12 9 1 2
6 9 9 11 12 14 17 19 21 22 22 24 26 26 26 27 28 28 26 27 25 24 24 21 19 17 11 8 16 10 4 9 4 5 8 12 17 18 5 15 15 8 10 9 15 6 14
11 12 12 13 14 15 16 19 21 22 24 24 26 27 28 28 27 28 26 27 26 24 23 20 18 12 11 13 19 10 11 8 4 4 5 9 16 7 6 7 11 14 4 9 18 8 8
13 14 14 15 17 18 19 20 22 22 24 25 25 28 28 28 27 26 24 24 18 15 11 16 20 11 13 1 9 12 20 11 10 16 7 3 3 6 8 11 5 7 7 9 12 10 3
16 17 17 18 18 19 21 21 23 24 25 26 26 27 25 26 25 22 16 7 7 6 18 15 11 12 22 9 4 9 17 16 12 4 3 9 10 7 10 10 7 7 7 12 11 9 10
19 19 20 21 20 21 22 23 24 25 26 27 28 27 25 22 20 12 11 11 15 14 22 21 33 41 40 36 10 15 23 11 5 4 3 11 7 17 8 10 12 11 10 12 10 6 1
21 22 22 22 22 22 23 24 24 25 26 27 27 27 25 18 15 7 7 10 14 8 8 24 27 34 37 20 17 25 28 23 6 5 6 9 12 6 7 8 9 7 6 6 9 12 12
23 23 23 23 24 25 25 25 26 26 27 27 27 26 25 13 7 10 11 4 4 7 9 15 11 21 32 29 11 35 32 20 5 12 12 10 12 9 9 11 13 6 9 4 3 7 3
26 26 26 25 25 25 27 27 27 27 27 28 28 26 21 12 9 9 9 5 4 2 5 6 8 5 26 31 5 9 43 29 14 8 10 13 4 13 8 13 10 15 5 5 5 8 4
22 24 27 28 28 28 27 28 29 29 29 28 27 29 21 18 16 13 3 10 4 10 11 12 10 9 11 11 4 7 26 24 9 6 6 14 12 9 12 8 8 7 8 13 9 7 7
22 22 24 27 29 29 31 30 30 31 31 29 27 30 25 18 8 10 12 11 9 7 9 10 3 3 6 12 8 6 9 9 11 7 4 11 7 9 9 2 6 13 14 8 9 10 10
22 24 25 27 30 31 32 33 34 33 34 31 27 28 27 18 19 15 14 8 6 10 12 11 8 1 13 7 6 10 10 8 5 8 6 5 13 4 2 9 11 5 14 11 7 4 10
22 25 27 27 29 31 33 35 36 35 35 33 26 23 21 13 26 23 13 5 15 11 7 13 16 1 6 8 4 8 14 14 17 15 14 9 11 6 6 9 14 7 4 8 13 5 5
21 24 26 29 31 31 33 36 37 36 35 33 24 12 5 13 32 28 8 12 9 9 10 8 5 3 2 9 14 14 15 11 11 20 15 11 3 6 11 8 9 14 14 5 7 4 4
22 24 27 28 31 33 34 37 37 35 34 27 12 2 12 18 36 17 7 13 8 15 15 3 4 7 8 4 13 13 14 9 18 13 16 10 7 12 7 2 14 4 4 14 10 9 10
21 24 27 29 31 33 35 36 39 36 35 24 4 5 20 29 6 4 4 9 8 8 7 8 4 10 8 5 4 3 13 18 28 26 21 15 10 8 18 3 7 6 8 10 10 7 4
20 23 27 30 32 33 34 35 37 37 38 35 12 6 24 29 3 4 10 9 8 6 10 6 6 5 7 6 2 6 4 6 9 19 21 16 3 3 17 13 8 14 5 11 9 6 6
18 21 24 27 30 31 32 33 34 32 29 23 5 4 6 22 6 9 3 10 7 14 15 15 11 10 8 5 9 4 11 7 15 10 17 25 8 14 15 13 7 9 8 8 10 7 7
19 21 24 28 30 31 31 33 32 27 20 14 10 3 5 5 5 5 7 6 7 8 8 14 4 8 8 3 6 9 9 13 11 20 8 10 9 7 5 10 9 6 5 9 7 9 8
20 21 24 27 29 30 30 30 30 25 9 13 7 9 9 8 18 10 9 7 13 13 9 8 6 6 9 10 9 3 3 10 3 12 8 6 4 6 5 6 9 6 8 8 8 3 3
21 22 23 25 26 28 28 29 29 26 14 7 9 7 4 7 11 5 2 8 12 10 8 4 7 9 10 11 12 8 3 6 4 2 5 6 10 6 7 4 7 9 5 5 10 8 4
25 23 23 24 24 25 27 26 26 25 21 17 18 7 5 5 5 5 9 18 13 11 6 8 19 7 3 6 0 3 3 7 17 15 3 6 7 5 5 6 5 9 9 15 21 5 5
24 23 22 24 23 21 23 23 21 19 14 9 18 9 6 3 8 11 26 22 18 14 8 9 19 11 3 5 8 10 11 11 8 9 10 9 8 8 8 5 6 6 7 6 7 5 9
20 24 22 24 23 19 20 20 19 17 14 4 10 11 2 1 5 12 9 17 7 9 14 10 13 22 6 8 7 6 7 7 5 6 8 12 13 9 5 9 10 11 2 2 10 8 29
19 22 24 21 22 19 18 18 17 16 11 5 7 11 6 8 5 11 7 6 12 8 5 10 21 17 15 6 6 4 4 4 3 5 5 6 7 9 5 5 12 10 11 11 6 14 28
19 20 24 20 20 19 17 16 16 15 9 4 2 9 13 10 19 13 6 10 15 11 4 16 5 13 10 8 5 2 3 4 1 4 2 5 8 5 7 7 10 7 9 6 8 6 28
19 20 23 22 17 18 18 17 15 15 13 6 7 15 22 17 14 20 23 20 16 8 11 16 4 2 6 6 3 3 4 5 2 3 7 2 7 6 9 9 8 15 4 9 14 10 15
Wind_Direction_850mb
16 316 306 314 315 316 322 321 318 317 319 321 321 321 320 319 319 317 318 321 322 323 323 329 336 335 346 305 262 355 3 92 124 92 53 26 56 32 9 291 314 202 259 284 244 267 256
332 308 310 315 317 317 316 317 316 314 313 314 316 317 315 314 313 311 311 313 311 314 313 320 325 328 329 292 215 3 357 111 135 54 42 41 25 347 291 284 324 309 285 282 280 279 192
338 316 318 316 316 314 313 312 311 310 311 312 313 312 311 311 309 307 306 306 304 308 304 308 314 315 287 255 223 278 296 203 226 339 36 34 25 356 318 316 325 291 289 333 297 354 70
336 336 331 325 322 315 312 312 311 310 310 309 308 308 309 309 307 305 304 303 300 298 295 298 303 306 261 211 217 245 284 200 139 28 348 18 349 327 230 305 342 25 42 4 288 11 295
354 344 341 332 326 318 313 311 313 312 311 308 307 307 308 309 307 305 306 298 298 293 289 291 291 288 266 226 237 235 244 212 281 331 358 320 330 353 14 57 8 8 323 310 309 244 176
359 350 344 336 330 325 318 312 313 312 309 307 306 304 308 309 309 307 310 301 302 300 300 282 265 286 237 158 280 246 242 232 284 334 329 331 50 51 40 64 212 278 328 287 264 304 52
3 356 349 345 336 329 324 320 315 314 312 310 306 302 303 304 306 318 330 314 335 272 306 255 272 268 265 321 241 212 198 211 255 279 63 14 50 235 226 209 215 265 231 243 260 292 205
7 2 356 349 341 335 328 323 320 317 315 312 308 304 301 297 299 318 52 78 30 301 302 270 259 256 259 278 298 197 171 193 176 202 76 15 251 242 228 223 240 240 254 298 291 334 288
5 1 358 352 345 339 334 328 324 320 316 311 308 305 300 294 285 243 132 56 38 3 258 287 249 244 242 246 225 229 194 199 154 165 172 167 240 350 200 284 293 234 222 275 229 345 13
3 2 358 352 347 344 339 335 329 323 318 313 309 306 302 295 253 208 180 82 25 323 39 274 233 240 215 215 263 223 201 183 196 210 184 224 273 265 242 247 162 275 191 228 56 71 262
2 1 358 354 349 345 342 340 333 327 320 315 310 304 302 279 250 208 228 150 251 303 339 249 214 198 187 172 159 205 211 199 188 199 90 252 311 358 315 222 149 225 134 31 99 97 52
3 0 356 355 351 347 344 340 336 330 322 316 311 300 294 281 249 211 213 176 146 48 251 319 186 166 117 189 232 67 174 200 221 174 229 239 272 233 220 254 172 96 79 45 55 62 31
1 358 356 354 352 347 343 340 337 332 323 318 311 297 289 265 234 191 183 168 54 151 332 300 333 33 202 175 211 150 140 163 170 135 305 329 264 270 225 322 33 75 54 1 360 8 216
360 357 357 356 351 348 345 342 338 334 326 323 312 296 280 248 221 169 170 59 158 231 255 298 316 346 178 148 242 158 141 203 266 98 91 119 322 197 23 168 185 86 137 148 192 220 266
359 357 355 356 353 349 345 343 340 339 330 327 317 298 279 233 196 177 175 95 206 212 297 348 328 0 240 229 160 145 187 200 204 163 168 161 267 315 262 194 137 185 107 177 102 23 45
356 354 351 353 352 351 348 346 342 345 336 332 325 312 246 185 175 176 93 223 230 231 328 20 18 343 320 270 160 156 181 210 213 185 167 201 290 254 295 90 61 153 156 74 23 165 264
354 352 350 350 350 351 352 350 346 348 344 335 334 41 152 145 161 172 168 230 279 276 343 359 275 289 270 276 189 181 199 272 203 180 136 135 108 282 15 310 167 67 73 49 113 123 159
355 350 348 348 348 351 353 355 350 352 354 349 12 58 149 153 97 36 178 212 321 309 329 308 253 239 257 294 315 166 212 221 210 156 161 198 154 227 236 284 292 127 139 127 120 234 101
357 353 350 348 346 348 355 358 354 357 358 358 358 51 172 178 127 293 292 287 270 271 243 259 285 273 291 278 250 233 234 262 5 164 167 174 235 311 340 354 6 83 75 109 118 85 177
355 356 352 349 348 347 352 1 359 360 4 355 4 58 153 219 237 148 357 274 251 255 244 219 240 279 273 350 30 306 335 351 2 67 118 141 117 164 202 202 182 126 90 72 108 98 180
354 360 358 354 351 350 353 3 5 8 28 18 11 44 39 305 299 283 188 270 304 312 268 222 244 228 221 34 15 359 321 346 353 20 72 107 124 150 147 163 144 117 97 154 157 170 142
351 357 1 360 355 353 355 5 13 12 32 43 28 10 3 298 309 308 171 265 226 260 229 294 204 161 134 145 195 164 294 20 347 334 46 351 137 113 45 78 115 123 34 88 90 110 173
352 354 359 2 358 354 355 7 16 24 37 40 23 343 319 331 345 30 256 286 274 320 227 264 229 116 116 188 190 263 243 96 45 340 26 43 119 95 174 315 114 25 13 103 94 51 135
357 350 355 359 360 358 355 6 15 24 34 40 19 18 7 290 12 298 305 336 290 273 257 16 106 99 286 280 261 107 34 34 60 33 81 115 83 78 135 42 62 257 2 113 111 88 71
352 350 350 355 356 358 357 1 11 17 26 41 25 21 3 304 297 322 332 345 355 4 21 41 38 6 79 84 52 39 348 9 337 30 25 72 109 67 111 108 259 117 223 165 138 219 195
336 347 344 349 351 351 355 355 0 6 23 79 24 2 337 278 250 328 323 359 355 334 342 343 27 38 56 75 75 123 180 230 301 347 65 46 70 102 97 114 180 237 310 137 108 311 187
319 332 341 338 343 347 348 350 350 359 24 104 24 3 317 287 267 359 16 331 346 343 273 325 337 5 26 52 72 124 220 241 214 185 210 20 19 135 130 144 285 255 297 175 103 238 183
303 316 332 331 335 341 339 341 340 344 352 224 353 345 349 300 292 257 280 340 350 11 33 325 351 358 30 64 108 200 141 266 346 260 6 151 133 190 95 101 267 11 285 165 200 1 191
292 300 317 324 323 332 335 333 334 335 339 338 246 307 306 282 276 293 271 279 273 286 321 5 73 158 54 86 58 105 27 20 80 276 334 76 159 195 167 212 304 344 350 130 143 120 178